Weather History for Calvi, France

Change the Weather History Date:

Saturday, April 20, 2013

  Actual Average Record
Temperature  
Mean Temperature 60 °F -  
Max Temperature 64 °F 68 °F 69 °F (2007)
Min Temperature 57 °F 52 °F 44 °F (1998)
Degree Days  
Heating Degree Days 4    
Growing Degree Days 10 (Base 50)    
Moisture  
Dew Point 38 °F    
Average Humidity 44    
Maximum Humidity 52    
Minimum Humidity 34    
Precipitation  
Precipitation 0.00 in - - ()
Sea Level Pressure  
Sea Level Pressure 29.94 in    
Wind  
Wind Speed 16 mph ()    
Max Wind Speed 26 mph    
Max Gust Speed 41 mph    
Visibility 6.2 miles    
Events      
Averages and records for this station are not official NWS values.
T = Trace of Precipitation, MM = Missing Value Source: Averaged Metar Reports

Daily Weather History Graph

Daily Weather History Graph

Search for Another Location

Airport:

Trip Planner

Search our weather history database for the weather conditions in past years. The results will help you decide how hot, cold, wet, or windy it might be!

Date:

Astronomy

Apr. 20, 2013 Rise Set
Actual Time 6:35 AM CEST 8:12 PM CEST
Civil Twilight 6:06 AM CEST 8:42 PM CEST
Nautical Twilight 5:30 AM CEST 9:18 PM CEST
Astronomical Twilight 4:51 AM CEST 9:56 PM CEST
Moon 2:33 PM CEST (4/20) 3:23 AM CEST (4/20)
Length of Visible Light 14h 36m
Length of Day
13h 36m
Waxing Gibbous, 68% of the Moon is Illuminated
Apr 20
Waxing Gibbous
Apr 25
Full
May 2
Last Quarter
May 10
New
May 18
First Quarter

Hourly Weather History & Observations

Time (CEST) Temp. Dew Point Humidity Pressure Visibility Wind Dir Wind Speed Gust Speed Precip Events Conditions
7:00 AM 57.2 °F 35.6 °F 44% 29.86 in - South 11.5 mph - N/A   Clear
7:30 AM 57.2 °F 35.6 °F 44% 29.86 in - SSW 16.1 mph - N/A   Clear
8:00 AM 59.0 °F 35.6 °F 42% 29.86 in - SSW 12.7 mph - N/A   Clear
8:30 AM 59.0 °F 35.6 °F 42% 29.86 in - SSW 17.3 mph - N/A   Clear
9:00 AM 60.8 °F 35.6 °F 39% 29.89 in 6.2 mi SSW 15.0 mph - N/A   Partly Cloudy
9:30 AM 62.6 °F 35.6 °F 37% 29.89 in 6.2 mi SSW 17.3 mph - N/A   Partly Cloudy
10:00 AM 62.6 °F 33.8 °F 34% 29.89 in 6.2 mi SSW 21.9 mph - N/A   Partly Cloudy
10:30 AM 62.6 °F 35.6 °F 37% 29.89 in 6.2 mi SW 20.7 mph 35.7 mph N/A   Scattered Clouds
11:00 AM 62.6 °F 37.4 °F 39% 29.92 in 6.2 mi SSW 21.9 mph - N/A   Scattered Clouds
11:30 AM 62.6 °F 39.2 °F 42% 29.92 in 6.2 mi SSW 24.2 mph - N/A   Scattered Clouds
12:00 PM 64.4 °F 39.2 °F 40% 29.92 in 6.2 mi SSW 15.0 mph - N/A   Mostly Cloudy
12:30 PM 62.6 °F 41.0 °F 45% 29.95 in 6.2 mi SW 21.9 mph 34.5 mph N/A   Mostly Cloudy
1:00 PM 60.8 °F 41.0 °F 48% 29.95 in 6.2 mi SW 20.7 mph - N/A   Mostly Cloudy
1:30 PM 59.0 °F 41.0 °F 51% 29.95 in 6.2 mi SW 26.5 mph 40.3 mph N/A   Mostly Cloudy
2:00 PM 60.8 °F 42.8 °F 52% 29.95 in 6.2 mi SW 25.3 mph 39.1 mph N/A   Mostly Cloudy
2:30 PM 59.0 °F 41.0 °F 51% 29.98 in 6.2 mi SW 24.2 mph 36.8 mph N/A   Mostly Cloudy
3:00 PM 59.0 °F 39.2 °F 48% 29.98 in 6.2 mi SW 25.3 mph 41.4 mph N/A   Scattered Clouds
3:30 PM 59.0 °F 37.4 °F 45% 29.98 in 6.2 mi SW 25.3 mph 41.4 mph N/A   Scattered Clouds
4:00 PM 59.0 °F 35.6 °F 42% 29.98 in 6.2 mi SW 25.3 mph 40.3 mph N/A   Scattered Clouds
4:30 PM 60.8 °F 35.6 °F 39% 29.98 in 6.2 mi SW 19.6 mph - N/A   Scattered Clouds
5:00 PM 59.0 °F 39.2 °F 48% 30.01 in 6.2 mi SW 17.3 mph - N/A   Scattered Clouds
5:30 PM 59.0 °F 39.2 °F 48% 30.01 in 6.2 mi SW 15.0 mph - N/A   Scattered Clouds
6:00 PM 59.0 °F 37.4 °F 45% 30.01 in 6.2 mi SSW 13.8 mph - N/A   Partly Cloudy
6:30 PM 59.0 °F 35.6 °F 42% 30.01 in 6.2 mi SSW 17.3 mph - N/A   Partly Cloudy
7:00 PM 57.2 °F 35.6 °F 44% 30.01 in 6.2 mi SSW 15.0 mph - N/A   Partly Cloudy